TimeEST,TemperatureF,Dew PointF,Humidity,Sea Level PressureIn,VisibilityMPH,Wind Direction,Wind SpeedMPH,Gust SpeedMPH,PrecipitationIn,Events,Conditions,WindDirDegrees,DateUTC
12:15 AM,28.4,21.6,76,30.42,10.0,SW,5.8,-,N/A,,Overcast,230,2013-11-29 05:15:00
12:35 AM,28.4,21.2,74,30.42,10.0,SW,5.8,-,N/A,,Overcast,220,2013-11-29 05:35:00
12:55 AM,28.4,20.8,73,30.43,10.0,WSW,9.2,-,N/A,,Overcast,240,2013-11-29 05:55:00
1:15 AM,28.2,20.3,72,30.43,10.0,SW,5.8,-,N/A,,Overcast,230,2013-11-29 06:15:00
1:35 AM,27.9,20.5,74,30.43,10.0,SW,5.8,-,N/A,,Overcast,230,2013-11-29 06:35:00
1:55 AM,27.5,20.3,74,30.44,10.0,SW,5.8,-,N/A,,Overcast,230,2013-11-29 06:55:00
2:15 AM,26.8,20.3,77,30.44,10.0,SW,4.6,-,N/A,,Overcast,230,2013-11-29 07:15:00
2:35 AM,25.9,19.2,76,30.45,10.0,SW,4.6,-,N/A,,Mostly Cloudy,220,2013-11-29 07:35:00
2:55 AM,24.1,18.3,79,30.46,10.0,WSW,3.5,-,N/A,,Scattered Clouds,240,2013-11-29 07:55:00
3:15 AM,23.7,17.8,78,30.47,10.0,WSW,3.5,-,N/A,,Clear,240,2013-11-29 08:15:00
3:35 AM,23.5,17.4,77,30.48,10.0,WSW,3.5,-,N/A,,Clear,240,2013-11-29 08:35:00
3:55 AM,23.7,17.2,76,30.48,10.0,North,-9999.0,-,N/A,,Clear,0,2013-11-29 08:55:00
4:15 AM,23.4,16.7,76,30.48,10.0,North,-9999.0,-,N/A,,Clear,0,2013-11-29 09:15:00
4:35 AM,22.8,16.5,77,30.49,10.0,North,-9999.0,-,N/A,,Clear,0,2013-11-29 09:35:00
4:55 AM,22.1,16.3,79,30.50,10.0,North,-9999.0,-,N/A,,Clear,0,2013-11-29 09:55:00
5:15 AM,21.7,15.8,78,30.50,10.0,North,-9999.0,-,N/A,,Clear,0,2013-11-29 10:15:00
5:35 AM,21.4,15.6,78,30.51,10.0,North,-9999.0,-,N/A,,Clear,0,2013-11-29 10:35:00
5:55 AM,21.6,15.8,78,30.51,10.0,North,-9999.0,-,N/A,,Clear,0,2013-11-29 10:55:00
6:15 AM,21.2,15.8,80,30.52,10.0,North,-9999.0,-,N/A,,Clear,0,2013-11-29 11:15:00
7:20 AM,17.6,14.0,86,30.55,10.0,Calm,Calm,-,N/A,,Clear,0,2013-11-29 12:20:00
7:51 AM,17.6,15.8,93,30.57,10.0,Calm,Calm,-,N/A,,Clear,0,2013-11-29 12:51:00
8:50 AM,21.2,17.6,86,30.59,10.0,Calm,Calm,-,N/A,,Clear,0,2013-11-29 13:50:00
9:50 AM,28.4,17.6,64,30.61,10.0,North,5.8,-,N/A,,Clear,10,2013-11-29 14:50:00
10:50 AM,30.2,17.6,60,30.61,10.0,NNE,5.8,-,N/A,,Clear,20,2013-11-29 15:50:00
11:50 AM,33.8,17.6,52,30.61,10.0,North,-9999.0,-,N/A,,Clear,0,2013-11-29 16:50:00
12:50 PM,33.8,17.6,52,30.61,10.0,Calm,Calm,-,N/A,,Clear,0,2013-11-29 17:50:00
1:49 PM,35.6,17.6,48,30.59,10.0,Calm,Calm,-,N/A,,Clear,0,2013-11-29 18:49:00
2:55 PM,35.6,19.4,52,30.57,10.0,Calm,Calm,-,N/A,,Clear,0,2013-11-29 19:55:00
3:50 PM,33.8,21.2,60,30.59,10.0,Calm,Calm,-,N/A,,Clear,0,2013-11-29 20:50:00
4:50 PM,32.0,21.2,64,30.59,10.0,Calm,Calm,-,N/A,,Clear,0,2013-11-29 21:50:00
5:58 PM,26.6,21.2,80,30.60,10.0,Calm,Calm,-,N/A,,Clear,0,2013-11-29 22:58:00
6:35 PM,27.3,21.0,77,30.59,10.0,Calm,Calm,-,N/A,,Clear,0,2013-11-29 23:35:00
6:55 PM,26.6,19.4,74,30.59,10.0,Calm,Calm,-,N/A,,Clear,0,2013-11-29 23:55:00
7:15 PM,25.9,20.5,80,30.59,10.0,Calm,Calm,-,N/A,,Clear,0,2013-11-30 00:15:00
7:35 PM,27.9,21.0,75,30.58,10.0,Calm,Calm,-,N/A,,Clear,0,2013-11-30 00:35:00
7:55 PM,29.3,20.7,70,30.58,10.0,ENE,3.5,-,N/A,,Clear,70,2013-11-30 00:55:00
8:15 PM,28.4,20.3,72,30.58,10.0,Calm,Calm,-,N/A,,Clear,0,2013-11-30 01:15:00
8:35 PM,28.4,20.1,71,30.58,10.0,Calm,Calm,-,N/A,,Clear,0,2013-11-30 01:35:00
8:55 PM,27.9,19.9,72,30.58,10.0,Calm,Calm,-,N/A,,Clear,0,2013-11-30 01:55:00
9:15 PM,27.9,19.9,72,30.57,10.0,Calm,Calm,-,N/A,,Clear,0,2013-11-30 02:15:00
9:35 PM,25.2,18.5,76,30.57,10.0,East,3.5,-,N/A,,Clear,100,2013-11-30 02:35:00
9:55 PM,27.1,19.4,73,30.57,10.0,East,3.5,-,N/A,,Clear,100,2013-11-30 02:55:00
10:15 PM,26.4,19.6,75,30.57,10.0,East,4.6,-,N/A,,Clear,100,2013-11-30 03:15:00
10:35 PM,26.1,19.8,77,30.56,10.0,East,4.6,-,N/A,,Clear,100,2013-11-30 03:35:00
10:55 PM,26.4,20.1,77,30.56,10.0,East,4.6,-,N/A,,Clear,100,2013-11-30 03:55:00
11:15 PM,25.7,19.8,78,30.55,10.0,East,4.6,-,N/A,,Clear,100,2013-11-30 04:15:00
11:35 PM,25.7,20.1,79,30.55,10.0,East,5.8,-,N/A,,Clear,100,2013-11-30 04:35:00
11:55 PM,26.4,20.3,78,30.55,10.0,East,4.6,-,N/A,,Clear,80,2013-11-30 04:55:00